Terug naar catalogus

SL-14 DEB

ActiefPO
NORAD 47088·DEBRIS·🇷🇺 Russia

Gelanceerd Aug 15, 1991 vanaf Plesetsk Cosmodrome

Loading…

Volgende Passages (komende 24 uur)

TLE

VerouderdSource: Space-Track

Epoch: Aug 23, 2026, 03:39 UTC

1 47088U 91056DN  26235.15213180  .00008352  00000-0  13822-1 0  9992
2 47088  82.6171 123.7851 0107146 129.1489 231.9231 13.44418668116660

Volg SL-14 DEB in realtime met AllMySat

Download on the App Store